Hourly Data Report for July 03, 2022

ATIKOKAN (AUT)
ONTARIO
Current Station Operator: ECCC - MSC

48°45'40.000" N
91°37'41.000" W
389.30 m
6020LPQ
71747
WCH

Download Data

Hourly Data (July 2022)
Hourly Data Report for July 3, 2022
TIME
LST
Temp Definition
°C
Dew Point Definition
°C
Rel Hum Definition
%
Precip. Amount Definition
mm

Wind Dir Definition
10's deg

Wind Spd Definition
km/h
Visibility Definition
km
Stn Press Definition
kPa
Hmdx Definition


Wind Chill Definition


Weather Definition


00:00 7.9 7.5 97 0.0   0   97.26     LegendNANA
01:00 7.4 7.1 98 0.0 8 1   97.30     LegendNANA
02:00 7.0 6.7 98 0.0 14 1   97.31     LegendNANA
03:00 6.1 5.8 98 0.0   0   97.32     LegendNANA
04:00 6.4 6.3 99 0.0   0   97.35     LegendNANA
05:00 6.5 6.3 99 0.0   0   97.37     LegendNANA
06:00 8.1 7.9 99 0.0 0 1   97.38     LegendNANA
07:00 11.9 10.7 92 0.0 5 1   97.40     LegendNANA
08:00 16.5 10.7 69 0.0 0 1   97.37     LegendNANA
09:00 19.4 6.4 43 0.0 20 5   97.34     LegendNANA
10:00 20.1 8.0 45 0.0 18 6   97.32     LegendNANA
11:00 21.3 8.1 43 0.0 20 6   97.31     LegendNANA
12:00 21.4 7.6 41 0.0 24 11   97.25     LegendNANA
13:00 20.6 8.8 47 0.0 21 8   97.22     LegendNANA
14:00 20.5 8.3 45 0.0 20 8   97.22     LegendNANA
15:00 20.7 9.0 47 0.0 21 8   97.18     LegendNANA
16:00 20.7 9.3 48 0.0 22 5   97.14     LegendNANA
17:00 22.3 10.2 46 0.0 14 1   97.08     LegendNANA
18:00 22.8 11.9 50 0.0 3 2   97.07 25   LegendNANA
19:00 21.6 10.9 51 0.0 13 6   97.04     LegendNANA
20:00 17.2 12.4 73 0.0 2 1   97.03     LegendNANA
21:00 14.9 12.6 86 0.0 0 1   97.07     LegendNANA
22:00 13.5 12.5 93 0.0 9 3   97.05     LegendNANA
23:00 12.5 11.9 96 0.0 10 1   97.05     LegendNANA

Notes on Data Quality.

Legend

  • E = Estimated
  • M = Missing
  • NA = Not Available*
  • [empty] = Indicates an unobserved value
Date modified: